Regional Weather Roundup
Issued by NWS

Home | Current Version | Previous Version | Graphics & Text | Print | Product List | Glossary On
Versions: 1 2 3 4 5 6 7 8 9 10 11 12 13 14 15 16 17 18 19 20 21 22 23 24 25 26 27 28 29 30 31 32 33 34 35 36 37 38 39 40 41 42 43 44 45 46 47 48 49 50
000
ASUS45 KCYS 220010
RWRWY

WYOMING REGIONAL WEATHER ROUNDUP
NATIONAL WEATHER SERVICE CHEYENNE WY
600 PM MDT FRI JUL 21 2017

NOTE:  "FAIR" INDICATES FEW OR NO CLOUDS BELOW 12,000 FEET
WITH NO SIGNIFICANT WEATHER AND/OR OBSTRUCTIONS TO VISIBILITY.

WYZ001-220100-
YELLOWSTONE NATIONAL PARK

CITY           SKY/WX    TMP DP  RH WIND       PRES   REMARKS
LK YELLOWSTONE   N/A     73  21  14 W9        30.31F
6HR MIN TEMP:  69; 6HR MAX TEMP:  74;

W YELLOWSTONE  NOT AVBL

$$
WYZ002>013-054>058-071-098>099-220100-
NORTHERN WYOMING

CITY           SKY/WX    TMP DP  RH WIND       PRES   REMARKS
JACKSON        SUNNY     81  27  13 CALM      30.21S
CODY           FAIR      85  41  21 N10       30.05S
GREYBULL       FAIR      93  26   9 N5        29.94F
6HR MIN TEMP:  85; 6HR MAX TEMP:  94;

WORLAND        FAIR      92  41  17 N7        29.95F
6HR MIN TEMP:  80; 6HR MAX TEMP:  93;

SHERIDAN       FAIR      90  37  15 NE6       30.00S
6HR MIN TEMP:  85; 6HR MAX TEMP:  91;

BUFFALO        FAIR      86  36  16 N8        30.07F
6HR MIN TEMP:  80; 6HR MAX TEMP:  87;

GILLETTE       FAIR      90  34  13 N12       30.01S
6HR MIN TEMP:  84; 6HR MAX TEMP:  92;

HULETT         FAIR      88  32  13 N13       30.02F
NEWCASTLE      FAIR      88  32  13 NW8G17    30.00F

$$
WYZ014>020-022>026-101>103-220100-
CENTRAL WYOMING

CITY           SKY/WX    TMP DP  RH WIND       PRES   REMARKS
BIG PINEY      FAIR      82  32  16 NW13      30.24S
6HR MIN TEMP:  73; 6HR MAX TEMP:  84;

PINEDALE       FAIR      81  28  15 NW20G25   30.25F
DUBOIS         FAIR      77  21  12 NW21G26   30.23S
LANDER         FAIR      89  31  12 NW21G26   30.06S
6HR MIN TEMP:  76; 6HR MAX TEMP:  91;

RIVERTON       FAIR      90  26  10 NW21G29   30.05F
6HR MIN TEMP:  76; 6HR MAX TEMP:  92;

CASPER         FAIR      91  37  15 N10       30.04F
6HR MIN TEMP:  82; 6HR MAX TEMP:  92;

DOUGLAS        FAIR      88  43  20 SW5       30.04F
6HR MIN TEMP:  82; 6HR MAX TEMP:  93;


$$
WYZ021-027>030-104>119-220100-
SOUTHERN WYOMING

CITY           SKY/WX    TMP DP  RH WIND       PRES   REMARKS
EVANSTON       FAIR      85  41  21 NW9       30.23F
6HR MIN TEMP:  77; 6HR MAX TEMP:  86;

KEMMERER         N/A    N/A N/A N/A NW5       30.26S
FORT BRIDGER   FAIR      80  48  32 S8        30.25F
ROCK SPRINGS   FAIR      82  44  26 SW7       30.19F
6HR MIN TEMP:  75; 6HR MAX TEMP:  83; 6HR PCP: TRACE;

RAWLINS        FAIR      76  53  44 S10       30.21S
6HR MIN TEMP:  72; 6HR MAX TEMP:  87; 6HR PCP:  0.01;

SARATOGA       TSTM      59  54  82 E20G25    30.32R
LARAMIE        FAIR      68  49  50 S23       30.26F
6HR MIN TEMP:  67; 6HR MAX TEMP:  84; 6HR PCP:  0.02;

CHEYENNE       CLOUDY    73  49  42 W20G30    30.18F
6HR MIN TEMP:  72; 6HR MAX TEMP:  90; 6HR PCP: TRACE;

TORRINGTON     FAIR      94  35  12 VRB3      29.97S
6HR MIN TEMP:  90; 6HR MAX TEMP:  97;

PINE BLUFFS    FAIR      84  39  20 N6        30.08F

$$



USA.gov is the U.S. government's official web portal to all federal, state and local government web resources and services.